This is the latest recevied weather packets stored in our database for station/object DC0PP-10. If no packets are shown the sender has not sent any weather packets the latest 10 day(s).
| Time | Temp. | Humidity | Pressure | Rain* | Wind** | Luminosity | Snow |
|---|---|---|---|---|---|---|---|
| 1777516835 | 12.22° C | 38% | 1024.6 hPa | - | - | - | - |
| 1777515935 | 12.22° C | 38% | 1024.7 hPa | - | - | - | - |
| 1777515035 | 12.22° C | 38% | 1024.6 hPa | - | - | - | - |
| 1777514134 | 12.78° C | 38% | 1024.5 hPa | - | - | - | - |
| 1777513233 | 12.78° C | 37% | 1024.4 hPa | - | - | - | - |
| 1777512333 | 13.33° C | 36% | 1024.3 hPa | - | - | - | - |
| 1777511433 | 13.33° C | 35% | 1024.2 hPa | - | - | - | - |
| 1777510533 | 13.89° C | 35% | 1024.2 hPa | - | - | - | - |
| 1777509633 | 13.89° C | 37% | 1024 hPa | - | - | - | - |
| 1777508737 | 13.89° C | 35% | 1023.9 hPa | - | - | - | - |
| 1777507837 | 14.44° C | 33% | 1023.8 hPa | - | - | - | - |
| 1777506936 | 14.44° C | 33% | 1023.6 hPa | - | - | - | - |
| 1777506036 | 15° C | 31% | 1023.5 hPa | - | - | - | - |
| 1777505136 | 15° C | 34% | 1023.7 hPa | - | - | - | - |
| 1777504236 | 15° C | 32% | 1023.5 hPa | - | - | - | - |
| 1777503336 | 15.56° C | 31% | 1023.5 hPa | - | - | - | - |
| 1777502436 | 15.56° C | 32% | 1023.4 hPa | - | - | - | - |
| 1777501536 | 15.56° C | 31% | 1023.3 hPa | - | - | - | - |
| 1777500635 | 15.56° C | 33% | 1023.1 hPa | - | - | - | - |
| 1777499735 | 16.11° C | 30% | 1023.1 hPa | - | - | - | - |
| 1777498835 | 16.11° C | 30% | 1023.1 hPa | - | - | - | - |
| 1777497935 | 16.11° C | 31% | 1023.1 hPa | - | - | - | - |
| 1777497034 | 16.11° C | 31% | 1022.8 hPa | - | - | - | - |
| 1777496134 | 16.67° C | 30% | 1022.7 hPa | - | - | - | - |
| 1777495234 | 16.11° C | 31% | 1022.7 hPa | - | - | - | - |
* Rain since midnight (hover to see other rain measurements)
** Current wind speed in m/s (hover to see current wind gust speed)